GW3329 Weather Reports


Display with metric or nautical units.
time (UTC)temp
F
wind
direction
speed
MPH
gust
MPH
rain 1hr
in
rain 24hr
in
rain mn
in
humidity
%
barometer
mb
20260509182359 70 143 1.0 4.0 0.00 0.00 0.00 72 1017.6
20260509181857 69 251 2.0 4.0 0.00 0.00 0.00 74 1017.6
20260509181354 69 162 1.0 2.0 0.00 0.00 0.00 74 1017.8
20260509180851 69 355 1.0 3.0 0.00 0.00 0.00 75 1017.6
20260509180346 68 92 0.0 4.0 0.00 0.00 0.00 77 1017.8
20260509175844 67 220 3.0 3.0 0.00 0.00 0.00 77 1017.8
20260509175340 67 262 2.0 4.0 0.00 0.00 0.00 79 1017.8
20260509174836 65 13 1.0 3.0 0.00 0.00 0.00 81 1017.6
20260509174332 65 158 0.0 4.0 0.00 0.00 0.00 81 1017.7
20260509173828 66 358 1.0 2.0 0.00 0.00 0.00 79 1018.0
20260509173323 65 210 1.0 6.0 0.00 0.00 0.00 81 1017.8
20260509172820 65 296 3.0 3.0 0.00 0.00 0.00 81 1017.8
20260509172317 65 238 2.0 4.0 0.00 0.00 0.00 82 1018.1
20260509171813 65 257 2.0 4.0 0.00 0.00 0.00 81 1017.6
20260509171308 65 191 1.0 3.0 0.00 0.00 0.00 81 1017.8
20260509170805 64 172 0.0 3.0 0.00 0.00 0.00 84 1017.5
20260509170301 64 257 1.0 2.0 0.00 0.00 0.00 84 1017.6
20260509165800 64 281 1.0 2.0 0.00 0.00 0.00 84 1017.8
20260509165255 63 347 2.0 2.0 0.00 0.00 0.00 85 1017.7
20260509164751 62 78 1.0 2.0 0.00 0.00 0.00 86 1017.7
20260509164248 62 173 2.0 3.0 0.00 0.00 0.00 86 1017.8
20260509163745 61 183 3.0 4.0 0.00 0.00 0.00 88 1017.4
20260509163241 61 250 1.0 3.0 0.00 0.00 0.00 88 1017.8
20260509162739 62 327 3.0 4.0 0.00 0.00 0.00 88 1017.8
20260509162234 61 157 0.0 2.0 0.00 0.00 0.00 88 1017.8
20260509161730 61 141 0.0 2.0 0.00 0.00 0.00 89 1018.0
20260509161226 60 239 1.0 2.0 0.00 0.00 0.00 90 1017.7
20260509160721 60 336 0.0 0.0 0.00 0.00 0.00 92 1017.6
20260509160218 59 187 1.0 2.0 0.00 0.00 0.00 93 1017.8
20260509155713 58 176 1.0 3.0 0.00 0.00 0.00 93 1017.8
20260509155210 58 212 2.0 3.0 0.00 0.00 0.00 93 1017.8
20260509154706 58 228 1.0 3.0 0.00 0.00 0.00 93 1017.9
20260509154203 58 134 0.0 2.0 0.00 0.00 0.00 94 1017.9
20260509153700 58 184 0.0 0.0 0.00 0.00 0.00 93 1017.8
20260509153156 58 152 0.0 1.0 0.00 0.00 0.00 94 1017.9
20260509152652 57 161 0.0 0.0 0.00 0.00 0.00 95 1017.7
20260509152149 57 242 2.0 2.0 0.00 0.00 0.00 95 1017.9
20260509151646 57 187 0.0 1.0 0.00 0.00 0.00 96 1017.7
20260509151143 57 309 0.0 1.0 0.00 0.00 0.00 96 1017.5
20260509150641 57 156 0.0 0.0 0.00 0.00 0.00 97 1017.8
20260509150139 56 126 0.0 0.0 0.00 0.00 0.00 97 1017.4
20260509145635 56 124 0.0 0.0 0.00 0.00 0.00 97 1017.8
20260509145130 56 136 0.0 0.0 0.00 0.00 0.00 98 1017.7
20260509144627 55 135 0.0 0.0 0.00 0.00 0.00 98 1017.8
20260509144124 55 142 0.0 0.0 0.00 0.00 0.00 98 1017.6
20260509143621 55 145 0.0 0.0 0.00 0.00 0.00 98 1017.7
20260509143119 55 147 0.0 0.0 0.00 0.00 0.00 98 1017.8
20260509142614 55 170 0.0 0.0 0.00 0.00 0.00 98 1017.7
20260509142111 54 133 0.0 0.0 0.00 0.00 0.00 98 1017.8
20260509141607 54 142 0.0 0.0 0.00 0.00 0.00 98 1017.8
20260509141103 54 78 0.0 0.0 0.00 0.00 0.00 98 1017.8
20260509140600 54 132 0.0 0.0 0.00 0.00 0.00 98 1017.6
20260509140058 54 126 0.0 0.0 0.00 0.00 0.00 98 1017.7
20260509135555 54 149 0.0 0.0 0.00 0.00 0.00 98 1017.7
20260509135053 54 323 0.0 0.0 0.00 0.00 0.00 98 1017.5
20260509134549 54 165 0.0 0.0 0.00 0.00 0.00 98 1017.6
20260509134047 54 345 0.0 0.0 0.00 0.00 0.00 98 1017.4
20260509133544 54 133 0.0 1.0 0.00 0.00 0.00 98 1017.3
20260509133042 54 149 0.0 0.0 0.00 0.00 0.00 98 1017.3
20260509132540 54 87 0.0 0.0 0.00 0.00 0.00 98 1017.1
20260509132037 54 163 0.0 0.0 0.00 0.00 0.00 98 1017.4
20260509131528 54 161 0.0 0.0 0.00 0.00 0.00 98 1017.4
20260509131025 53 156 0.0 0.0 0.00 0.00 0.00 98 1017.3
20260509130520 53 162 0.0 0.0 0.00 0.00 0.00 98 1017.4
20260509130018 53 186 0.0 0.0 0.00 0.00 0.00 97 1017.2
20260509125514 53 162 0.0 0.0 0.00 0.00 0.00 98 1017.2
20260509125010 53 165 0.0 0.0 0.00 0.00 0.00 98 1017.1
20260509124507 53 168 0.0 0.0 0.00 0.00 0.00 98 1017.1
20260509124004 53 158 0.0 0.0 0.00 0.00 0.00 98 1017.0
20260509123502 53 161 0.0 0.0 0.00 0.00 0.00 98 1016.9
20260509122957 53 146 0.0 0.0 0.00 0.00 0.00 98 1016.9
20260509122455 53 166 0.0 0.0 0.00 0.00 0.00 98 1017.1
20260509121951 53 155 0.0 0.0 0.00 0.00 0.00 98 1017.0
20260509121448 52 164 0.0 0.0 0.00 0.00 0.00 98 1016.9
20260509120946 53 171 0.0 0.0 0.00 0.00 0.00 98 1016.9
20260509120444 53 34 0.0 0.0 0.00 0.00 0.00 98 1016.9
20260509115942 53 145 0.0 0.0 0.00 0.00 0.00 98 1016.9
20260509115439 52 171 0.0 0.0 0.00 0.00 0.00 98 1016.8
20260509114936 52 145 0.0 0.0 0.00 0.00 0.00 98 1017.1
20260509114435 52 161 0.0 0.0 0.00 0.00 0.00 98 1017.0
20260509113934 52 160 0.0 0.0 0.00 0.00 0.00 98 1016.9
20260509113431 52 157 0.0 0.0 0.00 0.00 0.00 98 1017.1
20260509112927 52 157 0.0 0.0 0.00 0.00 0.00 98 1016.9
20260509112425 52 164 0.0 0.0 0.00 0.00 0.00 98 1017.1
20260509111921 52 146 0.0 0.0 0.00 0.00 0.00 98 1017.2
20260509111419 52 160 0.0 0.0 0.00 0.00 0.00 98 1017.0
20260509110916 52 160 0.0 0.0 0.00 0.00 0.00 98 1017.2
20260509110412 51 160 0.0 0.0 0.00 0.00 0.00 98 1017.2
20260509105910 51 160 0.0 0.0 0.00 0.00 0.00 98 1017.1
20260509105408 51 162 0.0 0.0 0.00 0.00 0.00 98 1017.5
20260509104905 51 144 0.0 0.0 0.00 0.00 0.00 98 1017.0
20260509104402 51 144 0.0 0.0 0.00 0.00 0.00 98 1017.3
20260509103859 51 177 0.0 0.0 0.00 0.00 0.00 98 1017.3
20260509103356 51 184 0.0 1.0 0.00 0.00 0.00 98 1017.3
20260509102855 51 171 0.0 0.0 0.00 0.00 0.00 98 1017.2
20260509102352 50 163 0.0 0.0 0.00 0.00 0.00 98 1017.2
20260509101847 50 163 0.0 0.0 0.00 0.00 0.00 98 1017.2
20260509101344 51 170 0.0 0.0 0.00 0.00 0.00 98 1017.2
20260509100842 51 173 0.0 0.0 0.00 0.00 0.00 98 1017.1
20260509100339 52 173 0.0 0.0 0.00 0.00 0.00 98 1017.3
20260509095835 52 176 0.0 0.0 0.00 0.00 0.00 98 1017.2
20260509095333 52 187 0.0 1.0 0.00 0.00 0.00 98 1017.3
20260509094830 52 196 0.0 0.0 0.00 0.00 0.00 98 1017.3
20260509094326 53 179 0.0 2.0 0.00 0.00 0.00 98 1017.2
20260509093824 53 195 0.0 0.0 0.00 0.00 0.00 98 1017.4
20260509093321 53 173 0.0 0.0 0.00 0.00 0.00 98 1017.3
20260509092820 53 172 0.0 0.0 0.00 0.00 0.00 98 1017.2
20260509092317 53 172 0.0 0.0 0.00 0.00 0.00 98 1017.2
20260509091815 52 172 0.0 0.0 0.00 0.00 0.00 98 1017.2
20260509091311 53 172 0.0 0.0 0.00 0.00 0.00 98 1017.1
20260509090809 53 172 0.0 0.0 0.00 0.00 0.00 98 1017.3
20260509090306 53 172 0.0 0.0 0.00 0.00 0.00 97 1017.4
20260509085803 53 172 0.0 0.0 0.00 0.00 0.00 97 1017.5
20260509085301 53 172 0.0 0.0 0.00 0.00 0.00 97 1017.6
20260509084757 53 172 0.0 0.0 0.00 0.00 0.00 97 1017.5
20260509084254 53 172 0.0 0.0 0.00 0.00 0.00 97 1017.8
20260509083752 53 172 0.0 0.0 0.00 0.00 0.00 97 1017.4
20260509083248 53 172 0.0 0.0 0.00 0.00 0.00 97 1017.6
20260509082745 53 172 0.0 0.0 0.00 0.00 0.00 97 1017.7
20260509082241 53 173 0.0 0.0 0.00 0.00 0.00 97 1017.6
20260509081738 53 172 0.0 0.0 0.00 0.00 0.00 97 1017.6
20260509081236 53 172 0.0 0.0 0.00 0.00 0.00 97 1017.8
20260509080734 53 172 0.0 0.0 0.00 0.00 0.00 97 1018.0
20260509080231 53 172 0.0 0.0 0.00 0.00 0.00 97 1017.9
20260509075729 53 172 0.0 0.0 0.00 0.00 0.00 97 1018.1
20260509075227 53 172 0.0 0.0 0.00 0.00 0.00 97 1017.8
20260509074723 53 172 0.0 0.0 0.00 0.00 0.00 96 1018.0
20260509074221 53 172 0.0 0.0 0.00 0.00 0.00 96 1018.1
20260509073717 53 172 0.0 0.0 0.00 0.00 0.00 96 1018.0
20260509073214 54 172 0.0 0.0 0.00 0.00 0.00 96 1017.8
20260509072710 54 172 0.0 0.0 0.00 0.00 0.00 96 1017.8
20260509072207 54 172 0.0 0.0 0.00 0.00 0.00 96 1017.8
20260509071703 54 173 0.0 0.0 0.00 0.00 0.00 96 1018.0
20260509071201 54 173 0.0 0.0 0.00 0.00 0.00 96 1018.0
20260509070658 54 173 0.0 0.0 0.00 0.00 0.00 96 1018.0
20260509070154 54 173 0.0 0.0 0.00 0.00 0.00 95 1017.9
20260509065650 55 173 0.0 0.0 0.00 0.00 0.00 95 1018.1
20260509065147 54 173 0.0 0.0 0.00 0.00 0.00 95 1018.1
20260509064643 55 173 0.0 0.0 0.00 0.00 0.00 95 1018.2
20260509064141 55 173 0.0 0.0 0.00 0.00 0.00 95 1018.1
20260509063638 55 174 0.0 0.0 0.00 0.00 0.00 95 1018.1
20260509063134 55 174 0.0 0.0 0.00 0.00 0.00 94 1018.1
20260509062632 55 174 0.0 0.0 0.00 0.00 0.00 94 1018.1
20260509062129 55 174 0.0 0.0 0.00 0.00 0.00 94 1018.3
20260509061626 56 176 0.0 0.0 0.00 0.00 0.00 94 1018.0
20260509061123 56 177 0.0 0.0 0.00 0.00 0.00 93 1018.1
20260509060621 56 190 0.0 0.0 0.00 0.00 0.00 93 1018.0
20260509060116 56 174 0.0 0.0 0.00 0.00 0.00 93 1018.2
20260509055612 57 180 0.0 1.0 0.00 0.00 0.00 93 1017.9
20260509055108 57 183 0.0 0.0 0.00 0.00 0.00 93 1018.3
20260509054605 57 178 0.0 0.0 0.00 0.00 0.00 93 1018.2
20260509054103 56 195 0.0 0.0 0.00 0.00 0.00 93 1018.1
20260509053601 56 168 0.0 0.0 0.00 0.00 0.00 93 1018.1
20260509053058 56 164 0.0 0.0 0.00 0.00 0.00 93 1018.1
20260509052555 57 165 0.0 0.0 0.00 0.00 0.00 93 1018.0
20260509052053 57 165 0.0 0.0 0.00 0.00 0.00 92 1018.1
20260509051551 57 167 0.0 0.0 0.00 0.00 0.00 92 1018.3
20260509051047 57 168 0.0 0.0 0.00 0.00 0.00 92 1018.3
20260509050544 57 171 0.0 0.0 0.00 0.00 0.00 92 1018.1
20260509050041 57 170 0.0 0.0 0.00 0.00 0.00 92 1018.0
20260509045538 57 173 0.0 0.0 0.00 0.00 0.00 92 1018.2
20260509045035 57 175 0.0 0.0 0.00 0.00 0.00 92 1018.1
20260509044533 57 178 0.0 0.0 0.00 0.00 0.00 92 1018.0
20260509044030 57 187 0.0 0.0 0.00 0.00 0.00 91 1017.9
20260509043526 57 160 0.0 0.0 0.00 0.00 0.00 91 1017.8
20260509043022 58 164 0.0 0.0 0.00 0.00 0.00 91 1017.7
20260509042518 58 164 0.0 0.0 0.00 0.00 0.00 91 1017.8
20260509042014 58 165 0.0 0.0 0.00 0.00 0.00 91 1017.7
20260509041511 58 170 0.0 0.0 0.00 0.00 0.00 91 1017.7
20260509041009 58 172 0.0 0.0 0.00 0.00 0.00 91 1017.7
20260509040507 58 171 0.0 0.0 0.00 0.00 0.00 91 1017.5
20260509040004 57 170 0.0 0.0 0.00 0.00 0.00 90 1017.5
20260509035501 58 170 0.0 0.0 0.00 0.00 0.00 91 1017.5
20260509034957 58 163 0.0 0.0 0.00 0.00 0.00 90 1017.5
20260509034455 58 163 0.0 0.0 0.00 0.00 0.00 90 1017.7
20260509033952 58 163 0.0 0.0 0.00 0.00 0.00 90 1017.6
20260509033449 58 166 0.0 0.0 0.00 0.00 0.00 89 1017.6
20260509032945 59 169 0.0 0.0 0.00 0.00 0.00 89 1017.6
20260509032443 59 157 0.0 0.0 0.00 0.00 0.00 88 1017.5
20260509031940 59 128 0.0 0.0 0.00 0.00 0.00 87 1017.4
20260509031438 59 31 0.0 1.0 0.00 0.00 0.00 87 1017.6
20260509030935 59 26 0.0 1.0 0.00 0.00 0.00 87 1017.4
20260509030433 60 41 0.0 2.0 0.00 0.00 0.00 86 1017.5
20260509025930 60 49 0.0 2.0 0.00 0.00 0.00 86 1017.5
20260509025425 60 344 1.0 1.0 0.00 0.00 0.00 86 1017.4
20260509024921 60 32 2.0 3.0 0.00 0.00 0.00 85 1017.4
20260509024417 61 163 0.0 0.0 0.00 0.00 0.00 85 1017.2
20260509023914 61 167 0.0 0.0 0.00 0.00 0.00 85 1017.1
20260509023411 61 176 0.0 1.0 0.00 0.00 0.00 85 1016.9
20260509022908 61 180 0.0 0.0 0.00 0.00 0.00 84 1017.1
20260509022405 61 184 0.0 0.0 0.00 0.00 0.00 84 1017.0
20260509021902 61 210 0.0 1.0 0.00 0.00 0.00 84 1016.7
20260509021359 61 178 0.0 2.0 0.00 0.00 0.00 84 1017.1
20260509020857 62 184 1.0 1.0 0.00 0.00 0.00 83 1017.3
20260509020355 62 133 0.0 0.0 0.00 0.00 0.00 83 1017.2
20260509015852 62 123 0.0 2.0 0.00 0.00 0.00 83 1017.2
20260509015350 62 191 0.0 1.0 0.00 0.00 0.00 82 1017.1
20260509014846 63 215 2.0 2.0 0.00 0.00 0.00 81 1017.1
20260509014343 63 59 1.0 2.0 0.00 0.00 0.00 80 1016.9
20260509013839 64 136 0.0 3.0 0.00 0.00 0.00 79 1017.2
20260509013336 64 180 0.0 0.0 0.00 0.00 0.00 78 1017.1
20260509012832 64 276 3.0 6.0 0.00 0.00 0.00 78 1017.2
20260509012329 65 229 3.0 4.0 0.00 0.00 0.00 77 1017.3
20260509011827 65 203 1.0 3.0 0.00 0.00 0.00 77 1017.0
20260509011324 66 355 1.0 3.0 0.00 0.00 0.00 77 1017.2
20260509010821 65 169 2.0 6.0 0.00 0.00 0.00 77 1017.1
20260509010319 66 278 2.0 3.0 0.00 0.00 0.00 76 1017.0
20260509005815 66 207 1.0 2.0 0.00 0.00 0.00 76 1017.1
20260509005313 66 256 4.0 6.0 0.00 0.00 0.00 76 1016.9
20260509004808 66 27 1.0 3.0 0.00 0.00 0.00 76 1017.0
20260509004304 66 305 1.0 7.0 0.00 0.00 0.00 76 1017.0
20260509003803 66 265 1.0 6.0 0.00 0.00 0.00 76 1017.0
20260509003300 66 277 2.0 6.0 0.00 0.00 0.00 75 1017.2
20260509002757 67 182 0.0 3.0 0.00 0.00 0.00 74 1017.1
20260509002255 67 297 2.0 3.0 0.00 0.00 0.00 74 1017.0
20260509001752 67 267 5.0 7.0 0.00 0.00 0.00 74 1017.1
20260509001248 68 159 0.0 4.0 0.00 0.00 0.00 72 1017.1
20260509000746 69 149 0.0 4.0 0.00 0.00 0.00 72 1017.2
20260509000242 68 224 1.0 3.0 0.00 0.00 0.00 72 1017.2
20260508235739 69 211 2.0 4.0 0.00 0.00 0.00 72 1017.3
20260508235230 68 60 1.0 7.0 0.00 0.00 0.00 72 1017.2
20260508234727 69 55 1.0 2.0 0.00 0.00 0.00 71 1017.1
20260508234223 69 168 2.0 8.0 0.00 0.00 0.00 71 1017.2
20260508233718 70 219 2.0 3.0 0.00 0.00 0.00 70 1017.3
20260508233215 69 59 2.0 4.0 0.00 0.00 0.00 71 1017.5
20260508232713 70 167 1.0 7.0 0.00 0.00 0.00 70 1017.2
20260508232209 70 300 2.0 4.0 0.00 0.00 0.00 71 1017.3
20260508231707 70 273 2.0 3.0 0.00 0.00 0.00 69 1017.6
20260508231204 70 248 5.0 9.0 0.00 0.00 0.00 71 1017.5
20260508230701 70 279 4.0 7.0 0.00 0.00 0.00 69 1017.7
20260508230156 71 166 2.0 6.0 0.00 0.00 0.00 68 1017.6
20260508225655 71 264 4.0 4.0 0.00 0.00 0.00 69 1017.5
20260508225150 71 257 1.0 3.0 0.00 0.00 0.00 68 1017.8
20260508224649 71 62 1.0 6.0 0.00 0.00 0.00 68 1017.7
20260508224146 72 243 0.0 4.0 0.00 0.00 0.00 68 1017.8
20260508223643 72 293 2.0 4.0 0.00 0.00 0.00 67 1017.8
20260508223141 72 188 6.0 8.0 0.00 0.00 0.00 67 1018.0
20260508222638 73 12 1.0 4.0 0.00 0.00 0.00 66 1018.0
20260508222135 72 114 1.0 4.0 0.00 0.00 0.00 67 1017.9
20260508221631 71 149 2.0 7.0 0.00 0.00 0.00 69 1018.1
20260508221127 72 340 2.0 4.0 0.00 0.00 0.00 67 1018.0
20260508220624 72 4 3.0 3.0 0.00 0.00 0.00 68 1018.2
20260508220120 72 140 2.0 3.0 0.00 0.00 0.00 68 1018.1
20260508215617 72 167 0.0 4.0 0.00 0.00 0.00 67 1018.2
20260508215114 72 236 4.0 6.0 0.00 0.00 0.00 67 1018.3
20260508214611 72 79 1.0 6.0 0.00 0.00 0.00 68 1018.5
20260508214108 71 283 4.0 6.0 0.00 0.00 0.00 67 1018.3
20260508213604 72 59 2.0 2.0 0.00 0.00 0.00 68 1018.4
20260508213101 71 316 1.0 4.0 0.00 0.00 0.00 70 1018.4
20260508212557 72 84 1.0 6.0 0.00 0.00 0.00 68 1018.5
20260508212054 71 190 2.0 6.0 0.00 0.00 0.00 69 1018.7
20260508211549 72 291 3.0 6.0 0.00 0.00 0.00 68 1018.6
20260508211045 71 199 4.0 4.0 0.00 0.00 0.00 67 1018.5
20260508210542 72 251 4.0 7.0 0.00 0.00 0.00 68 1018.8
20260508210040 71 201 2.0 6.0 0.00 0.00 0.00 68 1018.9
20260508205537 72 259 6.0 8.0 0.00 0.00 0.00 67 1018.9
20260508205033 71 225 2.0 9.0 0.00 0.00 0.00 70 1019.0
20260508204530 72 184 2.0 7.0 0.00 0.00 0.00 68 1019.0
20260508204025 72 265 2.0 4.0 0.00 0.00 0.00 67 1018.9
20260508203522 71 31 1.0 6.0 0.00 0.00 0.00 69 1019.0
20260508203018 71 28 2.0 4.0 0.00 0.00 0.00 68 1019.0
20260508202515 72 134 0.0 6.0 0.00 0.00 0.00 69 1019.0
20260508202012 72 134 1.0 3.0 0.00 0.00 0.00 68 1019.0
20260508201509 71 202 5.0 6.0 0.00 0.00 0.00 68 1019.0
20260508201005 72 170 0.0 3.0 0.00 0.00 0.00 67 1019.2
20260508200502 73 138 0.0 3.0 0.00 0.00 0.00 66 1019.6
20260508195956 72 215 1.0 4.0 0.00 0.00 0.00 68 1019.4
20260508195455 71 223 4.0 6.0 0.00 0.00 0.00 67 1019.4
20260508194950 72 197 2.0 3.0 0.00 0.00 0.00 66 1019.6
20260508194448 72 171 1.0 6.0 0.00 0.00 0.00 67 1019.6
20260508193945 71 52 1.0 3.0 0.00 0.00 0.00 69 1019.6
20260508193441 71 99 1.0 8.0 0.00 0.00 0.00 69 1019.6
20260508192938 70 267 3.0 7.0 0.00 0.00 0.00 68 1019.2
20260508192435 70 203 3.0 4.0 0.00 0.00 0.00 68 1019.4
20260508191932 70 125 1.0 2.0 0.00 0.00 0.00 69 1019.6
20260508191429 70 259 4.0 6.0 0.00 0.00 0.00 68 1019.8
20260508190925 69 183 3.0 6.0 0.00 0.00 0.00 71 1019.4
20260508190423 69 182 1.0 2.0 0.00 0.00 0.00 70 1019.6
20260508185919 69 210 1.0 2.0 0.00 0.00 0.00 70 1019.6
20260508185417 70 145 1.0 2.0 0.00 0.00 0.00 69 1019.3
20260508184914 69 31 4.0 6.0 0.00 0.00 0.00 71 1020.1
20260508184411 68 210 3.0 6.0 0.00 0.00 0.00 73 1020.0
20260508183908 69 269 3.0 4.0 0.00 0.00 0.00 71 1020.0
20260508183404 69 39 0.0 2.0 0.00 0.00 0.00 72 1019.9
20260508182859 69 147 1.0 2.0 0.00 0.00 0.00 72 1019.8